FW6802 Weather Reports


time (UTC)temp
C
wind
direction
speed
KPH
gust
KPH
rain 1hr
cm
rain 24hr
cm
rain mn
cm
humidity
%
barometer
mb
20260905204542 33 249 4.8 17.7 0.00 0.00 0.10 56 1009.3
20260905204042 33 284 6.4 17.7 0.00 0.00 0.10 56 1009.5
20260905203542 34 301 4.8 17.7 0.00 0.00 0.10 56 1009.5
20260905203041 34 272 1.6 17.7 0.00 0.00 0.10 55 1009.5
20260905202541 34 310 6.4 17.7 0.00 0.00 0.10 55 1009.8
20260905202041 35 255 4.8 17.7 0.00 0.00 0.10 54 1009.7
20260905201541 35 315 4.8 17.7 0.00 0.00 0.10 55 1009.7
20260905201040 35 282 3.2 17.7 0.00 0.00 0.10 54 1010.3
20260905200540 35 295 6.4 17.7 0.00 0.00 0.10 53 1009.9
20260905200039 35 317 3.2 17.7 0.00 0.00 0.10 53 1009.8
20260905195023 35 232 4.8 17.7 0.00 0.00 0.10 52 1010.0
20260905194523 35 216 1.6 17.7 0.00 0.00 0.10 52 1010.2
20260905194022 35 245 1.6 17.7 0.00 0.00 0.10 51 1010.0
20260905193522 35 209 6.4 17.7 0.00 0.00 0.10 52 1009.8
20260905193022 35 183 1.6 17.7 0.00 0.00 0.10 52 1010.1
20260905192522 35 233 3.2 17.7 0.00 0.00 0.10 52 1010.1
20260905192022 35 253 3.2 17.7 0.00 0.00 0.10 52 1010.2
20260905191522 35 210 6.4 17.7 0.00 0.00 0.10 53 1010.5
20260905191021 35 219 6.4 17.7 0.00 0.00 0.10 53 1010.4
20260905190521 35 233 6.4 17.7 0.00 0.00 0.10 53 1010.7
20260905190021 35 258 1.6 17.7 0.00 0.00 0.10 53 1010.6
20260905185521 35 208 6.4 17.7 0.00 0.00 0.10 53 1010.4
20260905185021 35 213 4.8 17.7 0.00 0.00 0.10 52 1010.6
20260905184521 34 229 6.4 17.7 0.00 0.00 0.10 53 1010.7
20260905184021 34 266 4.8 17.7 0.00 0.00 0.10 53 1010.8
20260905183521 33 221 4.8 17.7 0.00 0.00 0.10 54 1010.8
20260905183020 33 201 8.0 17.7 0.00 0.00 0.10 54 1010.9
20260905182520 33 206 6.4 17.7 0.00 0.00 0.10 54 1010.9
20260905182020 33 205 8.0 17.7 0.00 0.00 0.10 54 1010.9
20260905181520 33 228 6.4 17.7 0.00 0.00 0.10 54 1011.0
20260905180505 33 239 6.4 17.7 0.00 0.00 0.10 54 1011.1
20260905180005 33 227 6.4 17.7 0.00 0.00 0.10 55 1011.0
20260905175504 33 216 6.4 17.7 0.00 0.00 0.10 55 1011.1
20260905175003 33 189 8.0 17.7 0.00 0.00 0.10 56 1011.1
20260905174503 32 220 8.0 17.7 0.00 0.00 0.10 56 1011.2
20260905174003 32 210 6.4 17.7 0.00 0.00 0.10 56 1011.1
20260905172432 31 211 6.4 17.7 0.00 0.00 0.10 59 1011.5
20260905171931 31 213 6.4 17.7 0.00 0.00 0.10 59 1011.4
20260905171431 31 189 6.4 17.7 0.00 0.00 0.10 59 1011.5
20260905170931 31 185 8.0 17.7 0.00 0.00 0.10 60 1011.4
20260905170430 31 192 8.0 17.7 0.00 0.00 0.10 59 1011.4
20260905165929 31 221 4.8 17.7 0.00 0.00 0.10 60 1011.6
20260905165428 30 206 4.8 17.7 0.00 0.00 0.10 61 1012.0
20260905164413 29 219 3.2 17.7 0.00 0.00 0.10 63 1012.3
20260905163912 28 159 3.2 17.7 0.00 0.00 0.10 66 1012.2
20260905163412 28 210 3.2 17.7 0.00 0.00 0.10 68 1011.9
20260905161325 28 179 4.8 17.7 0.00 0.00 0.10 65 1011.9
20260905160825 28 169 3.2 17.7 0.00 0.00 0.10 65 1011.8
20260905155808 30 179 8.0 17.7 0.00 0.00 0.10 62 1011.7
20260905155307 30 189 6.4 17.7 0.00 0.00 0.10 62 1012.0
20260905154252 29 205 6.4 17.7 0.00 0.00 0.10 63 1012.3
20260905153751 28 218 8.0 17.7 0.00 0.00 0.10 64 1012.0
20260905153250 28 186 4.8 17.7 0.00 0.00 0.10 65 1012.3
20260905152750 28 187 6.4 17.7 0.00 0.00 0.10 65 1012.1
20260905152249 28 215 6.4 17.7 0.00 0.00 0.10 66 1011.9
20260905151233 27 194 6.4 17.7 0.00 0.00 0.10 67 1011.8
20260905150733 27 155 4.8 17.7 0.00 0.00 0.10 67 1011.7
20260905150232 27 178 4.8 17.7 0.00 0.00 0.10 69 1011.7
20260905145216 27 186 8.0 17.7 0.00 0.00 0.10 70 1011.9
20260905144201 26 164 8.0 17.7 0.00 0.00 0.10 72 1011.8
20260905143700 26 166 8.0 17.7 0.00 0.00 0.10 72 1012.1
20260905143200 25 138 4.8 17.7 0.00 0.00 0.10 74 1012.2
20260905142659 25 158 8.0 17.7 0.00 0.00 0.10 74 1012.4
20260905141642 25 177 8.0 17.7 0.00 0.00 0.10 75 1012.1
20260905141142 25 166 4.8 17.7 0.00 0.00 0.10 77 1012.2
20260905140641 25 168 8.0 17.7 0.00 0.00 0.10 77 1011.8
20260905140141 24 150 4.8 17.7 0.00 0.00 0.10 78 1012.2
20260905135640 24 170 8.0 17.7 0.00 0.00 0.10 78 1012.2
20260905135139 24 153 8.0 17.7 0.00 0.00 0.10 79 1012.3
20260905134639 23 146 6.4 17.7 0.00 0.00 0.10 79 1012.3
20260905134138 23 166 4.8 17.7 0.00 0.00 0.10 80 1012.3
20260905132605 23 168 3.2 17.7 0.00 0.00 0.10 81 1012.2
20260905132104 23 142 6.4 17.7 0.00 0.00 0.10 82 1012.4
20260905131604 23 142 6.4 17.7 0.00 0.00 0.10 82 1012.4
20260905125517 22 83 1.6 17.7 0.00 0.00 0.10 85 1012.0
20260905125017 22 153 1.6 17.7 0.00 0.00 0.10 86 1012.2
20260905124517 22 150 3.2 17.7 0.00 0.00 0.10 86 1012.1
20260905124017 21 165 4.8 17.7 0.00 0.00 0.10 86 1011.9
20260905123516 21 151 4.8 17.7 0.00 0.00 0.10 87 1011.8
20260905123016 21 136 1.6 17.7 0.00 0.00 0.10 87 1012.2
20260905122515 21 147 6.4 17.7 0.00 0.00 0.10 87 1012.0
20260905122014 21 172 0.0 17.7 0.00 0.00 0.10 88 1011.9
20260905121513 21 111 1.6 17.7 0.00 0.00 0.10 88 1012.1
20260905121013 21 195 1.6 17.7 0.00 0.00 0.10 88 1012.4
20260905120512 21 103 1.6 17.7 0.00 0.00 0.10 88 1012.6
20260905120012 21 80 3.2 17.7 0.08 0.00 0.10 88 1012.1
20260905115511 21 78 3.2 17.7 0.10 0.00 0.10 88 1012.1
20260905114454 21 88 1.6 17.7 0.10 0.00 0.10 88 1012.0
20260905113954 21 98 3.2 17.7 0.10 0.00 0.10 88 1012.3
20260905113453 21 74 3.2 17.7 0.10 0.00 0.10 88 1011.9
20260905112952 21 85 3.2 17.7 0.10 0.00 0.10 88 1011.9
20260905112451 21 65 6.4 17.7 0.10 0.00 0.10 88 1011.9
20260905111950 21 84 4.8 17.7 0.10 0.00 0.10 88 1012.3
20260905111449 21 99 3.2 17.7 0.10 0.00 0.10 87 1011.7
20260905110949 22 73 4.8 17.7 0.10 0.00 0.10 86 1012.1
20260905110448 22 73 6.4 17.7 0.10 0.00 0.10 85 1011.8
20260905105948 22 43 6.4 17.7 0.10 0.00 0.10 84 1012.0
20260905105448 22 78 3.2 19.3 0.00 0.00 0.00 82 1012.1
20260905104947 22 76 4.8 19.3 0.00 0.00 0.00 81 1012.5
20260905104447 22 71 4.8 19.3 0.00 0.00 0.00 81 1012.2
20260905102915 23 44 9.7 25.7 0.00 0.00 0.00 80 1012.3
20260905101859 23 101 6.4 24.1 0.00 0.00 0.00 83 1012.1
20260905101358 23 36 12.9 24.1 0.00 0.00 0.00 87 1011.7
20260905100342 24 221 0.0 17.7 0.00 0.00 0.00 91 1011.2
20260905095842 24 221 0.0 17.7 0.00 0.00 0.00 91 1011.1
20260905094827 24 221 0.0 17.7 0.00 0.00 0.00 91 1010.8
20260905094327 24 221 0.0 17.7 0.00 0.00 0.00 91 1011.2
20260905093827 24 221 0.0 17.7 0.00 0.00 0.00 91 1011.3
20260905093326 24 220 0.0 17.7 0.00 0.00 0.00 91 1010.8
20260905092826 24 220 0.0 17.7 0.00 0.00 0.00 91 1010.9
20260905092326 25 220 0.0 17.7 0.00 0.00 0.00 91 1010.9
20260905091826 25 220 0.0 17.7 0.00 0.00 0.00 90 1010.9
20260905090811 25 220 0.0 17.7 0.00 0.00 0.00 90 1010.8
20260905090310 25 220 0.0 17.7 0.00 0.00 0.00 90 1010.9
20260905085810 25 220 0.0 17.7 0.00 0.00 0.00 90 1010.9
20260905085310 25 220 0.0 17.7 0.00 0.00 0.00 90 1010.8
20260905084809 25 220 0.0 17.7 0.00 0.00 0.00 89 1011.0
20260905083237 25 220 0.0 17.7 0.00 0.00 0.00 89 1011.0
20260905082737 25 220 0.0 17.7 0.00 0.00 0.00 89 1010.8
20260905082237 25 220 0.0 17.7 0.00 0.00 0.00 88 1010.8
20260905081736 25 220 0.0 17.7 0.00 0.00 0.00 88 1010.7
20260905081236 25 220 0.0 17.7 0.00 0.00 0.00 89 1010.8
20260905080736 25 220 0.0 17.7 0.00 0.00 0.00 89 1010.6
20260905080235 25 220 0.0 17.7 0.00 0.00 0.00 89 1010.8
20260905075735 25 220 0.0 17.7 0.00 0.00 0.00 88 1010.3
20260905075235 25 220 0.0 17.7 0.00 0.00 0.00 88 1010.2
20260905074219 25 220 0.0 17.7 0.00 0.00 0.00 88 1010.1
20260905073718 25 220 1.6 17.7 0.00 0.00 0.00 88 1010.1
20260905073218 25 177 1.6 17.7 0.00 0.00 0.00 88 1009.8
20260905072717 25 198 3.2 17.7 0.00 0.00 0.00 88 1010.1
20260905072216 25 207 3.2 17.7 0.00 0.00 0.00 88 1010.0
20260905071716 25 204 1.6 17.7 0.00 0.00 0.00 88 1010.1
20260905071215 25 204 0.0 17.7 0.00 0.00 0.00 88 1010.0
20260905070714 25 204 1.6 17.7 0.00 0.00 0.00 88 1010.2
20260905070211 25 204 1.6 17.7 0.00 0.00 0.00 87 1010.1
20260905065154 25 190 1.6 17.7 0.00 0.00 0.00 87 1010.0
20260905064139 25 201 3.2 17.7 0.00 0.00 0.00 87 1010.4
20260905063639 25 193 3.2 17.7 0.00 0.00 0.00 87 1010.5
20260905063139 25 213 3.2 17.7 0.00 0.00 0.00 87 1010.8
20260905062638 25 197 0.0 17.7 0.00 0.00 0.00 87 1010.5
20260905061622 25 199 1.6 17.7 0.00 0.00 0.00 86 1010.9
20260905061122 25 200 0.0 17.7 0.00 0.00 0.00 86 1010.5
20260905060621 25 199 3.2 17.7 0.00 0.00 0.00 86 1011.1
20260905055605 25 196 3.2 17.7 0.00 0.00 0.00 87 1010.9
20260905055105 25 197 1.6 17.7 0.00 0.00 0.00 87 1011.4
20260905053017 25 187 0.0 17.7 0.00 0.00 0.00 87 1011.2
20260905052518 25 179 1.6 17.7 0.00 0.00 0.00 87 1011.4
20260905051502 25 159 0.0 17.7 0.00 0.00 0.00 87 1011.4
20260905051002 25 159 1.6 17.7 0.00 0.00 0.00 87 1011.2
20260905050502 25 159 1.6 17.7 0.00 0.00 0.00 87 1011.2
20260905050003 25 158 0.0 17.7 0.00 0.00 0.00 87 1011.2
20260905045502 25 158 0.0 17.7 0.00 0.00 0.00 86 1011.6
20260905045002 25 158 0.0 17.7 0.00 0.00 0.00 86 1011.6
20260905043431 25 158 0.0 17.7 0.00 0.00 0.00 86 1011.5
20260905042930 25 158 0.0 17.7 0.00 0.00 0.00 86 1011.3
20260905042429 25 158 0.0 17.7 0.00 0.00 0.00 86 1011.3
20260905041928 25 158 0.0 17.7 0.00 0.00 0.00 86 1011.4
20260905041427 25 157 1.6 17.7 0.00 0.00 0.00 87 1011.5
20260905040927 25 156 0.0 17.7 0.00 0.00 0.00 87 1011.3
20260905040426 25 156 0.0 17.7 0.00 0.00 0.00 86 1011.7
20260905035411 25 156 0.0 17.7 0.00 0.00 0.00 86 1011.6
20260905034911 25 156 0.0 17.7 0.00 0.00 0.00 86 1011.4
20260905034410 25 156 0.0 17.7 0.00 0.00 0.00 86 1011.8
20260905033910 25 156 0.0 17.7 0.00 0.00 0.00 86 1011.5
20260905033411 25 156 0.0 17.7 0.00 0.00 0.00 86 1011.9
20260905032355 25 156 0.0 17.7 0.00 0.00 0.00 86 1011.4
20260905031853 26 156 0.0 17.7 0.00 0.00 0.00 85 1011.6
20260905031352 26 156 0.0 17.7 0.00 0.00 0.00 85 1011.7
20260905030852 26 156 0.0 17.7 0.00 0.00 0.00 85 1011.6
20260905025837 26 156 0.0 17.7 0.00 0.00 0.00 85 1011.6
20260905025337 26 156 0.0 17.7 0.00 0.00 0.00 85 1011.4
20260905024322 26 156 0.0 17.7 0.00 0.00 0.00 84 1011.4
20260905023822 26 156 1.6 17.7 0.00 0.00 0.00 85 1011.4
20260905023322 26 156 0.0 17.7 0.00 0.00 0.00 84 1011.4
20260905022821 26 156 0.0 17.7 0.00 0.00 0.00 84 1011.5
20260905022321 26 156 0.0 17.7 0.00 0.00 0.00 84 1011.3
20260905021821 26 156 1.6 17.7 0.00 0.00 0.00 83 1011.4
20260905021321 26 182 0.0 17.7 0.00 0.00 0.00 83 1011.2
20260905020820 26 191 0.0 17.7 0.00 0.00 0.00 83 1011.6
20260905020319 26 191 0.0 17.7 0.00 0.00 0.00 83 1011.7
20260905015819 26 191 0.0 17.7 0.00 0.00 0.00 83 1011.4
20260905015319 26 191 0.0 17.7 0.00 0.00 0.00 83 1011.4
20260905013746 26 191 0.0 17.7 0.00 0.00 0.00 84 1011.5
20260905013246 26 191 0.0 17.7 0.00 0.00 0.00 84 1011.2
20260905012230 26 189 0.0 17.7 0.00 0.00 0.00 84 1011.2
20260905011729 27 188 0.0 17.7 0.00 0.00 0.00 83 1011.2
20260905011225 27 188 0.0 17.7 0.00 0.00 0.00 83 1010.9
20260905010725 27 175 1.6 17.7 0.00 0.00 0.00 83 1011.0
20260905010224 27 140 0.0 17.7 0.00 0.00 0.00 83 1011.1
20260905005724 27 141 1.6 17.7 0.00 0.00 0.00 82 1011.1
20260905005223 27 171 0.0 17.7 0.00 0.00 0.00 82 1010.9
20260905004723 27 171 0.0 17.7 0.00 0.00 0.00 83 1011.1
20260905004223 27 171 1.6 17.7 0.00 0.00 0.00 83 1010.5
20260905003721 27 169 0.0 17.7 0.00 0.00 0.00 83 1010.8
20260905003221 27 164 1.6 17.7 0.00 0.00 0.00 83 1010.9
20260905002720 27 151 3.2 17.7 0.00 0.00 0.00 82 1010.6
20260905002219 27 138 0.0 17.7 0.00 0.00 0.00 82 1011.0
20260905001202 27 130 0.0 17.7 0.00 0.00 0.00 82 1010.8
20260905000702 28 164 0.0 17.7 0.00 0.00 0.00 83 1011.0
20260905000204 28 164 3.2 17.7 0.00 0.00 0.00 81 1010.7
20260904235700 28 151 0.0 17.7 0.00 0.00 0.00 82 1011.0
20260904234644 29 149 0.0 17.7 0.00 0.00 0.00 81 1010.8
20260904234143 29 144 1.6 17.7 0.00 0.00 0.00 80 1010.9
20260904233643 30 159 4.8 17.7 0.00 0.00 0.00 79 1010.6
20260904233142 30 82 3.2 17.7 0.00 0.00 0.00 77 1010.9
20260904232127 31 146 1.6 17.7 0.00 0.00 0.00 75 1010.3
20260904231112 31 87 1.6 17.7 0.00 0.00 0.00 73 1011.1
20260904230611 31 79 1.6 17.7 0.00 0.00 0.00 72 1010.6
20260904230110 31 81 0.0 17.7 0.00 0.00 0.00 72 1010.5
20260904225610 32 80 0.0 17.7 0.00 0.00 0.00 71 1010.7
20260904225109 32 65 1.6 17.7 0.00 0.00 0.00 70 1010.8
20260904224609 32 90 0.0 17.7 0.00 0.00 0.00 69 1010.8
20260904224109 32 359 0.0 17.7 0.00 0.00 0.00 68 1010.9
20260904223609 32 114 0.0 17.7 0.00 0.00 0.00 68 1010.7
20260904222554 32 141 3.2 17.7 0.00 0.00 0.00 67 1012.3
20260904221022 33 78 4.8 17.7 0.00 0.00 0.00 66 1011.5
20260904220522 33 147 3.2 17.7 0.00 0.00 0.00 66 1011.7
20260904220022 33 157 1.6 17.7 0.00 0.00 0.00 65 1011.0
20260904215522 33 59 1.6 17.7 0.00 0.00 0.00 65 1010.9
20260904215022 33 110 0.0 17.7 0.00 0.00 0.00 64 1011.0
20260904214521 33 162 3.2 17.7 0.00 0.00 0.00 63 1010.8
20260904214021 33 104 1.6 17.7 0.00 0.00 0.00 63 1011.0
20260904213521 33 87 1.6 17.7 0.00 0.00 0.00 62 1011.2
20260904213021 33 62 4.8 17.7 0.00 0.00 0.00 62 1011.6
20260904212521 33 46 4.8 17.7 0.00 0.00 0.00 61 1011.9
20260904212021 33 65 1.6 17.7 0.00 0.00 0.00 60 1011.5
20260904211521 33 68 3.2 17.7 0.00 0.00 0.00 63 1011.5
20260904211021 32 74 0.0 17.7 0.00 0.00 0.00 64 1011.1
20260904210521 32 57 1.6 17.7 0.00 0.00 0.00 65 1011.1
20260904210021 32 45 11.3 17.7 0.00 0.00 0.00 65 1011.0
20260904205521 32 143 1.6 20.9 0.00 0.00 0.00 66 1010.6